Regional Weather Roundup
Issued by NWS

Home | Current Version | Previous Version | Graphics & Text | Print | Product List | Glossary On
Versions: 1 2 3 4 5 6 7 8 9 10 11 12 13 14 15 16 17 18 19 20 21 22 23 24 25 26 27 28 29 30 31 32 33 34 35 36 37 38 39 40 41 42 43 44 45 46 47 48 49 50
000
ASUS45 KTFX 012204
RWRMT
MONTANA HOURLY WEATHER ROUNDUP
NATIONAL WEATHER SERVICE GREAT FALLS MT
404 PM MDT FRI AUG 1 2014

NOTE: "FAIR" INDICATES FEW OR NO CLOUDS BELOW 12000 FEET WITH NO
SIGNIFICANT WEATHER AND/OR OBSTRUCTIONS TO VISIBILITY.

* THESE STATIONS ARE NOT UNDER NWS QUALITY CONTROL. THEY DO NOT
   REPORT WEATHER SUCH AS PRECIPITATION OR FOG.

MTZ001>007-043-012300-
WEST OF THE DIVIDE
CITY           SKY/WX    TMP DP  RH WIND       PRES   REMARKS
KALISPELL      PTCLDY    91  43  19 VRB5      30.04F
MISSOULA       PTCLDY    95  30  10 SE5       30.02F
BUTTE          PTCLDY    84  32  15 SE7       30.22F
MULLAN PASS    PTSUNNY   75  45  34 VRB3      30.27F
* ESSEX        N/A      N/A N/A N/A N/A        N/A
* LINCOLN      N/A       89  45  22 NE10G23    N/A
* LOOKOUT PASS N/A       82  45  27 NW2G8      N/A
* POLSON       N/A       91  44  20 N4G10      N/A
* RONAN APT    SUNNY     90  46  22 NW9        N/A
* SEELEY LAKE  N/A       93  31  11 E5G15      N/A
* THOMP F APT  PTSUNNY   73  39  29 N6G13      N/A
$$

MTZ008-052>055-012300-
SOUTHWEST MONTANA
CITY           SKY/WX    TMP DP  RH WIND       PRES   REMARKS
BOZEMAN        PTCLDY    90  37  15 N6        30.14F
DILLON         PTCLDY    86  37  17 SE25G32   30.20R
W YELLOWSTONE  PTSUNNY   63  48  58 N7        30.32S
* THREE FORKS  PTCLDY    90  48  24 N6         N/A
* BOULDER HILL N/A       81  42  25 NE5        N/A
* MONIDA PASS  N/A       71  35  27 S16G26     N/A
* RAYNOLDS PAS N/A       77  75  94 VRB10G15    N/A
* WHITEHALL    N/A       91  37  15 SE7G12     N/A
* WISE RIVER   N/A       78  35  21 SW12G22    N/A
$$

MTZ009>010-012-014-046-048-049-054-012300-
EAST SLOPES AND CENTRAL MONTANA
CITY           SKY/WX    TMP DP  RH WIND       PRES   REMARKS
CUT BANK       PTCLDY    84  52  33 VRB6      30.18F
GREAT FALLS    SUNNY     91  41  17 E7        30.13F
HELENA         PTCLDY    93  37  14 NE12      30.10F
MALMSTROM AFB  SUNNY     90  41  18 N8        30.13F
* CONRAD       PTSUNNY   86  54  33 N/A        N/A
* DEARBORN     N/A       89  43  20 VRB8       N/A
* EAST GLACIER N/A       76  56  50 E6         N/A
* MONARCH      N/A       79  40  25 S12        N/A
* PENDROY      N/A       81  53  38 SW6        N/A
* SAINT MARY   N/A       81  55  41 N6G12      N/A   HI  81
* SWEET GRASS  N/A       81  53  38 N11G16     N/A
$$

MTZ011-013-016-021-035-040-045-047-050-051-012300-
NORTH CENTRAL MONTANA
CITY           SKY/WX    TMP DP  RH WIND       PRES   REMARKS
HAVRE          PTCLDY    93  50  23 N9G17     30.07F
LEWISTOWN      PTCLDY    88  36  16 W5        30.17F
* CHESTER      N/A       90  47  23 NE2G7      N/A
* DENTON       N/A       90  48  24 W4G14      N/A
* GEYSER       N/A       88  46  23 N4G12      N/A
* JUDITH GAP   N/A       86  46  25 VRB14G20    N/A
* LOMA         N/A       92  46  20 NW11       N/A
$$

MTZ017>020-022>027-061-062-012300-
NORTHEAST MONTANA
CITY           SKY/WX    TMP DP  RH WIND       PRES   REMARKS
GLASGOW        SUNNY     91  52  26 S9        30.05F
GLENDIVE       SUNNY     88  52  29 NE16      30.08S
JORDAN         SUNNY     93  45  19 N12G20    30.07F
SIDNEY         SUNNY     88  55  33 E10       30.09S
WOLF POINT     PTCLDY    91  46  21 SE6       30.05F
* CIRCLE       N/A       90  53  28 E3G9       N/A
* NAVAJO       N/A       84  55  37 NE4G9      N/A
$$

MTZ028>042-056>058-012300-
SOUTHCENTRAL AND SOUTHEAST MONTANA
CITY           SKY/WX    TMP DP  RH WIND       PRES   REMARKS
BAKER          SUNNY     93  46  20 NE9       30.07S
BILLINGS       PTCLDY    91  34  13 CALM      30.12F
LIVINGSTON     PTSUNNY   91  32  12 E13       30.15F
MILES CITY     PTCLDY    95  37  13 NW12G23   30.04F
* LAUREL APT   PTCLDY    91  41  17 NE7        N/A
* ROUNDUP APT  SUNNY     91  39  16 NE8        N/A
* HYSHAM       N/A       92  46  20 N9         N/A
* REED POINT   N/A       90  45  21 NE8G16     N/A
* ROSCOE HILL  N/A       84  41  22 NE9        N/A
$$

REGIONAL REPORTS...DAKOTAS
CITY           SKY/WX    TMP DP  RH WIND       PRES   REMARKS
WILLISTON      PTCLDY    84  54  36 VRB3      30.09S
DICKINSON      PTCLDY    82  61  49 E9        30.06F HI  83
CROSBY         SUNNY     81  61  51 SE9       30.10S HI  82
TIOGA          SUNNY     79  59  50 SE3       30.14S
WATFORD CITY   SUNNY     82  57  43 E5        30.08S HI  82
BISMARCK       CLOUDY    86  57  37 E10       30.04F
GRAND FORKS    PTCLDY    82  57  43 CALM      30.06S HI  82
FARGO          PTCLDY    82  55  40 NE9       30.06S HI  81
BUFFALO SD     SUNNY     91  48  23 VRB5      29.99F
RAPID CITY     PTSUNNY   79  52  39 SE6       30.07F
$$

REGIONAL REPORTS...WYOMING/IDAHO/WASHINGTON
CITY           SKY/WX    TMP DP  RH WIND       PRES   REMARKS
GILLETTE       PTSUNNY   88  37  16 NE7G17    30.15F
SHERIDAN       PTSUNNY   88  41  19 SW18G24   30.14S
CODY           PTSUNNY   82  43  25 NE9       30.21R
YELLOWSTONE LA CLOUDY    63  41  45 N/A       30.46R
SALMON         CLOUDY    86  48  27 N10       30.04F
MULLAN PASS    PTSUNNY   75  45  34 VRB3      30.27S
SAND POINT     PTCLDY    86  54  33 E3        30.02F
SPOKANE        CLOUDY    93  37  14 VRB3      30.02F

$$



USA.gov is the U.S. government's official web portal to all federal, state and local government web resources and services.